#timestamp,LO_Frequency,Hit 
1505800815.7,286047004.0,N
1505800835.6,286047003.9,N
1505800855.4,286047001.1,N
1505800875.2,286046999.9,N
1505800895.0,286047003.8,N
1505800896.0,286047003.8,N
1505800915.8,286047004.0,N
1505800935.6,286046998.1,N
1505800955.4,286047000.5,N
1505800975.3,286047003.1,N
1505800995.1,286047001.7,N
1505801015.8,286047000.6,N
1505801035.7,286047000.3,N
1505801055.5,286047002.1,N
1505801075.3,286047007.1,P
1505801095.2,286047002.4,N
1505801115.0,286047002.3,N
1505801115.9,286047002.3,N
1505801135.7,286046999.5,N
1505801155.6,286046996.6,N
1505801175.4,286046996.6,N
1505801195.2,286047001.0,N
1505801215.1,286047005.7,N
1505801216.0,286047005.7,N
1505801235.8,286047001.3,N
1505801255.6,286047003.1,N
1505801275.5,286047003.9,N
1505801295.3,286046999.3,N
1505801315.1,286047001.1,N
1505801335.9,286046995.2,N
1505801355.7,286046993.5,N
1505801375.5,286046995.6,N
1505801395.3,286046993.3,N
1505801415.2,286046996.1,N
1505801435.0,286046999.8,N
1505801435.9,286046999.8,N
1505801455.7,286046998.7,N
1505801475.6,286047000.5,N
1505801495.4,286046994.9,N
1505801515.2,286046993.3,N
1505801535.1,286046992.6,N
1505801536.0,286046992.6,N
1505801555.8,286046995.2,N
1505801575.6,286046999.5,N
1505801595.5,286046999.1,N
1505801615.3,286046998.3,N
1505801635.1,286047001.6,N
1505801655.9,286047002.5,N
1505801675.7,286046999.8,N
1505801695.5,286046996.5,N
1505801715.3,286046998.8,N
1505801735.2,286047002.4,N
1505801755.0,286047000.1,N
1505801755.9,286047000.1,N
1505801775.7,286047001.0,N
1505801795.6,286047001.8,N
1505801815.4,286046998.5,N
1505801835.2,286046998.8,N
1505801855.1,286046994.9,N
1505801856.0,286046994.9,N
1505801875.8,286047001.2,N
1505801895.6,286046996.6,N
1505801915.5,286046999.4,N
1505801935.3,286046998.5,N
1505801955.1,286046997.6,N
1505801975.9,286046990.8,P
1505801995.7,286046996.3,N
1505802015.5,286046997.6,N
1505802035.4,286046998.5,N
1505802055.2,286047002.7,N
1505802075.0,286047002.5,N
1505802075.9,286047002.5,N
1505802095.8,286046994.9,N
1505802115.6,286046994.4,N
1505802135.4,286046992.5,N
1505802155.3,286046990.2,N
1505802175.1,286046993.9,N
1505802176.0,286046993.9,N
1505802195.8,286046996.1,N
1505802215.6,286046992.8,N
1505802235.5,286046994.2,N
1505802255.3,286046996.6,N
1505802275.1,286046997.5,N
1505802295.9,286046999.5,N
1505802315.7,286046998.4,N
1505802335.5,286047001.9,N
1505802355.4,286047001.1,N
1505802375.2,286046999.6,N
1505802395.0,286046997.6,N
1505802395.9,286046997.6,N
1505802415.8,286046992.8,N
1505802435.6,286046996.2,N
1505802455.4,286046991.8,N
1505802475.3,286046995.1,N
1505802495.1,286046997.4,N
1505802496.0,286046997.4,N
1505802515.8,286046993.3,N
1505802535.7,286046993.3,N
1505802555.5,286046995.9,N
1505802575.3,286046993.8,N
1505802595.1,286046994.8,N
1505802615.9,286046991.2,N
1505802635.7,286046990.5,P
1505802655.5,286047002.8,N
1505802675.4,286047004.0,N
1505802695.2,286046999.8,N
1505802715.0,286047002.9,N
1505802715.9,286047002.9,N
1505802735.8,286047004.8,N
1505802755.6,286047001.3,N
1505802775.4,286046998.9,N
1505802795.3,286046998.5,N
1505802815.1,286047000.7,N
1505802835.8,286046998.2,N
1505802855.7,286046997.0,N
1505802875.5,286046999.5,N
1505802895.3,286046995.4,N
1505802915.2,286046998.0,N
1505802935.9,286046997.1,N
1505802955.7,286046997.2,N
1505802975.5,286046996.2,N
1505802995.4,286046995.5,N
1505803015.2,286046993.4,N
1505803035.0,286046997.1,N
1505803035.9,286046997.1,N
1505803055.8,286046996.9,N
1505803075.6,286046995.7,N
1505803095.4,286046995.2,N
1505803115.3,286046993.7,N
1505803135.1,286046994.0,N
1505803136.0,286046994.0,N
1505803155.8,286046993.3,N
1505803175.7,286046995.0,N
1505803195.5,286046996.1,N
1505803215.3,286046992.7,N
1505803235.2,286046997.9,N
1505803255.9,286046998.9,N
1505803275.7,286047001.0,N
1505803295.5,286047000.3,N
1505803315.4,286046995.2,N
1505803335.2,286046997.7,N
1505803355.1,286046991.2,P
1505803356.0,286046991.2,P
1505803375.8,286046990.6,P
1505803395.6,286046998.4,N
1505803415.4,286046998.3,N
1505803435.3,286046998.6,N
1505803455.1,286046996.8,N
1505803475.8,286047001.1,N
1505803495.7,286047001.9,N
1505803515.5,286047002.2,N
1505803535.3,286046999.4,N
1505803555.2,286046998.7,N
1505803575.9,286046998.4,N
1505803595.7,286047005.3,N
1505803615.6,286047002.2,N
1505803635.4,286047002.4,N
1505803655.2,286047002.5,N
1505803675.0,286046999.8,N
1505803676.0,286046999.8,N
1505803695.8,286046996.5,N
1505803715.6,286046998.2,N
1505803735.4,286046999.0,N
1505803755.3,286046999.1,N
1505803775.1,286046997.7,N
1505803795.8,286046996.1,N
1505803815.7,286046997.5,N
1505803835.5,286046996.0,N
1505803855.3,286046991.7,N
1505803875.2,286046990.1,N
1505803895.9,286046997.5,N
1505803915.7,286046995.0,N
1505803935.6,286046993.8,N
1505803955.4,286046994.0,N
1505803975.2,286046997.4,N
1505803995.0,286046999.1,N
1505803996.0,286046999.1,N
1505804015.8,286046997.6,N
1505804035.6,286046992.2,N
1505804055.4,286046995.1,N
1505804075.3,286046997.9,N
1505804095.1,286047000.7,N
1505804115.8,286046997.2,N
1505804135.7,286046997.9,N
1505804155.5,286046995.1,N
1505804175.3,286046997.8,N
1505804195.2,286046995.8,N
1505804215.9,286046994.2,N
1505804235.7,286046993.9,N
1505804255.6,286046997.5,N
1505804275.4,286046997.6,N
1505804295.2,286046995.3,N
1505804315.1,286046999.1,N
1505804316.0,286046999.1,N
1505804335.8,286047001.1,N
1505804355.6,286046997.2,N
1505804375.5,286047000.8,N
1505804395.3,286047000.0,N
